Weather History for KCMR - December, 2013

Change the Weather History Date:

Wednesday, December 18, 2013

  Actual Average (KFLG) Record (KFLG)
Temperature  
Mean Temperature 44 °F 29 °F  
Max Temperature 57 °F 42 °F 65 °F (1901)
Min Temperature 32 °F 16 °F -14 °F (1908)
Degree Days  
Heating Degree Days 20 36  
Month to date heating degree days 629  
Since 1 July heating degree days 2361  
Cooling Degree Days 0 0  
Month to date cooling degree days 0  
Year to date cooling degree days 117  
Moisture  
Dew Point 15 °F    
Average Humidity 35    
Maximum Humidity 55    
Minimum Humidity 13    
Precipitation  
Precipitation 0.00 in 0.06 in 2.65 in (1978)
Month to date precipitation 1.03  
Year to date precipitation 21.02  
Snow  
Snow 0.00 in 0.50 in 7.20 in (2002)
Month to date snowfall 9.2  
Since 1 July snowfall 21.4  
Snow Depth -    
Sea Level Pressure  
Sea Level Pressure 30.19 in    
Wind  
Wind Speed 9 mph (SSE)    
Max Wind Speed 16 mph    
Max Gust Speed 17 mph    
Visibility 10 miles    
Events      
T = Trace of Precipitation, MM = Missing Value Source: NWS Daily Summary

Daily Weather History Graph

Daily Weather History Graph

Search for Another Location

Airport or City:

Trip Planner

Search our weather history database for the weather conditions in past years. The results will help you decide how hot, cold, wet, or windy it might be!

Date:

Astronomy

Dec. 18, 2013 Rise Set
Actual Time 7:32 AM MST 5:18 PM MST
Civil Twilight 7:03 AM MST 5:47 PM MST
Nautical Twilight 6:32 AM MST 6:19 PM MST
Astronomical Twilight 6:01 AM MST 6:50 PM MST
Moon 6:51 PM MST (12/18) 8:17 AM MST (12/18)
Length of Visible Light 10h 43m
Length of Day
9h 46m
Full, 98% of the Moon is Illuminated
Dec 18
Full
Dec 25
Last Quarter
Jan 1
New
Jan 7
First Quarter
Jan 15
Full

Hourly Weather History & Observations

Time (MST) Temp. Windchill Dew Point Humidity Pressure Visibility Wind Dir Wind Speed Gust Speed Precip Events Conditions
12:15 AM 37.4 °F 30.3 °F 14.0 °F 38% 30.35 in 10.0 mi SSE 10.4 mph - N/A   Clear
12:35 AM 37.4 °F 30.8 °F 15.8 °F 41% 30.35 in 10.0 mi SSE 9.2 mph - N/A   Clear
12:55 AM 37.4 °F 30.3 °F 14.0 °F 38% 30.34 in 10.0 mi SSE 10.4 mph - N/A   Clear
1:15 AM 35.6 °F 28.6 °F 15.8 °F 44% 30.33 in 10.0 mi SSE 9.2 mph - N/A   Clear
1:35 AM 35.6 °F 28.6 °F 15.8 °F 44% 30.33 in 10.0 mi SSE 9.2 mph - N/A   Clear
1:55 AM 35.6 °F 29.2 °F 15.8 °F 44% 30.32 in 10.0 mi SSE 8.1 mph - N/A   Clear
2:15 AM 35.6 °F 28.6 °F 15.8 °F 44% 30.32 in 10.0 mi SE 9.2 mph - N/A   Clear
2:35 AM 35.6 °F 29.2 °F 15.8 °F 44% 30.32 in 10.0 mi SSE 8.1 mph - N/A   Clear
2:55 AM 35.6 °F 28.6 °F 15.8 °F 44% 30.31 in 10.0 mi SSE 9.2 mph - N/A   Clear
3:15 AM 35.6 °F 28.6 °F 15.8 °F 44% 30.31 in 10.0 mi SSE 9.2 mph - N/A   Clear
3:35 AM 33.8 °F 26.4 °F 15.8 °F 48% 30.31 in 10.0 mi SSE 9.2 mph - N/A   Clear
3:55 AM 35.6 °F 28.0 °F 15.8 °F 44% 30.30 in 10.0 mi SSE 10.4 mph - N/A   Clear
4:15 AM 33.8 °F 25.8 °F 15.8 °F 48% 30.30 in 10.0 mi SSE 10.4 mph - N/A   Clear
4:35 AM 32.0 °F 24.2 °F 17.6 °F 55% 30.30 in 10.0 mi SSE 9.2 mph - N/A   Clear
4:55 AM 33.8 °F 25.8 °F 15.8 °F 48% 30.29 in 10.0 mi SSE 10.4 mph - N/A   Clear
5:15 AM 32.0 °F 23.6 °F 15.8 °F 51% 30.28 in 10.0 mi SSE 10.4 mph - N/A   Clear
5:35 AM 33.8 °F 25.3 °F 15.8 °F 48% 30.28 in 10.0 mi SSE 11.5 mph - N/A   Clear
5:55 AM 32.0 °F 23.6 °F 15.8 °F 51% 30.27 in 10.0 mi SSE 10.4 mph - N/A   Clear
6:15 AM 35.6 °F 28.0 °F 15.8 °F 44% 30.27 in 10.0 mi SSE 10.4 mph - N/A   Clear
6:35 AM 35.6 °F 28.0 °F 14.0 °F 41% 30.26 in 10.0 mi SSE 10.4 mph - N/A   Clear
6:55 AM 33.8 °F 25.3 °F 17.6 °F 52% 30.26 in 10.0 mi SSE 11.5 mph - N/A   Clear
7:15 AM 35.6 °F 27.5 °F 15.8 °F 44% 30.27 in 10.0 mi SSE 11.5 mph - N/A   Clear
7:35 AM 32.0 °F 24.8 °F 17.6 °F 55% 30.27 in 10.0 mi SSE 8.1 mph - N/A   Clear
7:55 AM 32.0 °F 24.8 °F 17.6 °F 55% 30.27 in 10.0 mi SSE 8.1 mph - N/A   Clear
8:15 AM 32.0 °F 24.2 °F 17.6 °F 55% 30.27 in 10.0 mi SE 9.2 mph - N/A   Clear
8:35 AM 35.6 °F 27.5 °F 17.6 °F 48% 30.27 in 10.0 mi SSE 11.5 mph - N/A   Partly Cloudy
8:55 AM 37.4 °F 30.8 °F 17.6 °F 45% 30.28 in 10.0 mi SSE 9.2 mph - N/A   Partly Cloudy
9:15 AM 39.2 °F 33.0 °F 17.6 °F 42% 30.28 in 10.0 mi SSE 9.2 mph - N/A   Clear
9:35 AM 39.2 °F 35.0 °F 17.6 °F 42% 30.28 in 10.0 mi SSE 5.8 mph - N/A   Clear
9:55 AM 48.2 °F - 17.6 °F 30% 30.28 in 10.0 mi SE 4.6 mph - N/A   Clear
10:15 AM 53.6 °F - 14.0 °F 21% 30.28 in 10.0 mi SSE 4.6 mph - N/A   Clear
10:35 AM 53.6 °F - 15.8 °F 22% 30.27 in 10.0 mi SSE 4.6 mph - N/A   Partly Cloudy
10:55 AM 55.4 °F - 14.0 °F 20% 30.27 in 10.0 mi SSE 4.6 mph - N/A   Scattered Clouds
11:15 AM 57.2 °F - 14.0 °F 18% 30.26 in 10.0 mi SSE 3.5 mph - N/A   Overcast
11:35 AM 57.2 °F - 15.8 °F 20% 30.25 in 10.0 mi SE 3.5 mph - N/A   Mostly Cloudy
11:55 AM 57.2 °F - 12.2 °F 17% 30.24 in 10.0 mi South 4.6 mph - N/A   Scattered Clouds
12:15 PM 57.2 °F - 12.2 °F 17% 30.23 in 10.0 mi South 6.9 mph - N/A   Clear
12:35 PM 57.2 °F - 6.8 °F 13% 30.20 in 10.0 mi Calm Calm - N/A   Clear
12:55 PM 57.2 °F - 10.4 °F 16% 30.19 in 10.0 mi Calm Calm - N/A   Clear
1:15 PM 57.2 °F - 8.6 °F 14% 30.18 in 10.0 mi SW 11.5 mph - N/A   Clear
1:35 PM 55.4 °F - 14.0 °F 20% 30.17 in 10.0 mi South 10.4 mph - N/A   Clear
1:55 PM 55.4 °F - 10.4 °F 17% 30.17 in 10.0 mi South 9.2 mph 17.3 mph N/A   Clear
2:15 PM 55.4 °F - 10.4 °F 17% 30.15 in 10.0 mi South 5.8 mph - N/A   Clear
2:35 PM 55.4 °F - 10.4 °F 17% 30.14 in 10.0 mi SSW 8.1 mph - N/A   Clear
2:55 PM 55.4 °F - 10.4 °F 17% 30.13 in 10.0 mi South 5.8 mph - N/A   Clear
3:15 PM 55.4 °F - 14.0 °F 20% 30.13 in 10.0 mi SSW 8.1 mph - N/A   Clear
3:35 PM 55.4 °F - 12.2 °F 18% 30.12 in 10.0 mi South 6.9 mph - N/A   Clear
3:55 PM 53.6 °F - 10.4 °F 18% 30.12 in 10.0 mi South 5.8 mph - N/A   Clear
4:15 PM 53.6 °F - 10.4 °F 18% 30.12 in 10.0 mi SSW 10.4 mph - N/A   Clear
4:35 PM 51.8 °F - 10.4 °F 19% 30.11 in 10.0 mi South 8.1 mph - N/A   Clear
4:55 PM 50.0 °F - 10.4 °F 20% 30.11 in 10.0 mi South 6.9 mph - N/A   Partly Cloudy
5:15 PM 50.0 °F - 10.4 °F 20% 30.10 in 10.0 mi SSW 6.9 mph - N/A   Partly Cloudy
5:35 PM 50.0 °F - 10.4 °F 20% 30.10 in 10.0 mi Calm Calm - N/A   Clear
5:55 PM 46.4 °F 45.2 °F 14.0 °F 27% 30.09 in 10.0 mi East 3.5 mph - N/A   Clear
6:15 PM 44.6 °F 41.4 °F 14.0 °F 29% 30.09 in 10.0 mi ESE 5.8 mph - N/A   Clear
6:35 PM 44.6 °F 42.2 °F 14.0 °F 29% 30.08 in 10.0 mi SE 4.6 mph - N/A   Mostly Cloudy
6:55 PM 44.6 °F 42.2 °F 15.8 °F 31% 30.07 in 10.0 mi SE 4.6 mph - N/A   Mostly Cloudy
7:15 PM 44.6 °F 38.8 °F 17.6 °F 34% 30.06 in 10.0 mi SE 11.5 mph - N/A   Clear
7:35 PM 46.4 °F 40.4 °F 17.6 °F 32% 30.06 in 10.0 mi SE 13.8 mph - N/A   Scattered Clouds
7:55 PM 46.4 °F 40.7 °F 17.6 °F 32% 30.05 in 10.0 mi SE 12.7 mph - N/A   Partly Cloudy
8:15 PM 44.6 °F 37.4 °F 17.6 °F 34% 30.03 in 10.0 mi SE 16.1 mph - N/A   Clear
8:35 PM 44.6 °F 38.4 °F 19.4 °F 37% 30.02 in 10.0 mi SE 12.7 mph - N/A   Scattered Clouds
8:55 PM 44.6 °F 38.8 °F 19.4 °F 37% 30.01 in 10.0 mi SE 11.5 mph - N/A   Mostly Cloudy
9:15 PM 44.6 °F 39.2 °F 19.4 °F 37% 30.01 in 10.0 mi ESE 10.4 mph - N/A   Partly Cloudy
9:35 PM 41.0 °F 37.1 °F 19.4 °F 42% 30.00 in 10.0 mi SE 5.8 mph - N/A   Clear
9:55 PM 41.0 °F 35.8 °F 19.4 °F 42% 30.01 in 10.0 mi SE 8.1 mph - N/A   Clear
10:15 PM 39.2 °F 33.6 °F 19.4 °F 45% 30.00 in 10.0 mi ESE 8.1 mph - N/A   Clear
10:35 PM 39.2 °F 33.0 °F 19.4 °F 45% 30.00 in 10.0 mi ESE 9.2 mph - N/A   Clear
10:55 PM 37.4 °F 30.8 °F 19.4 °F 48% 29.99 in 10.0 mi ESE 9.2 mph - N/A   Clear
11:15 PM 39.2 °F 32.5 °F 19.4 °F 45% 29.98 in 10.0 mi ESE 10.4 mph 16.1 mph N/A   Clear
11:35 PM 39.2 °F 33.0 °F 19.4 °F 45% 29.97 in 10.0 mi ESE 9.2 mph - N/A   Clear
11:55 PM 41.0 °F 33.9 °F 19.4 °F 42% 29.96 in 10.0 mi SE 12.7 mph - N/A   Clear